GFSGBSN_2pvu_pres_132.txt.gz
Presure
189 174 160 170 173 190 197 213 225 248 288 297 369 371 369 344 348 348 332 329 224 409 377 378 395 317 389 235 173 261 204 211 215 206 221 231 157 207 202 143 149 140 141 139 167 156 163
176 162 162 169 172 187 200 213 230 249 299 300 362 360 352 337 344 332 330 326 333 350 415 372 238 380 386 408 146 224 240 223 219 211 217 216 223 203 143 144 141 186 147 138 168 142 158
188 165 164 190 181 208 209 213 226 244 309 298 362 339 359 338 319 327 312 340 318 326 348 379 360 354 388 374 184 226 138 234 130 216 213 216 211 221 212 143 193 141 152 196 136 144 149
175 153 160 170 174 191 212 214 222 237 305 298 349 333 336 348 323 318 310 308 324 316 325 344 350 350 164 352 222 176 149 130 229 205 214 215 210 212 218 209 217 158 140 132 136 145 127
187 168 162 166 181 192 211 210 220 234 306 330 348 334 318 328 332 327 333 309 332 328 320 325 349 377 377 373 382 262 278 194 139 162 165 213 213 208 207 198 207 212 220 229 202 183 197
166 161 181 175 187 188 214 209 203 229 309 377 356 333 324 323 332 330 334 326 321 309 327 326 333 363 365 380 389 237 120 184 135 156 115 212 209 204 207 204 203 202 204 212 219 207 197
166 167 186 184 174 186 221 206 138 223 295 372 369 339 328 339 338 339 349 312 310 323 341 337 338 345 350 384 269 124 117 358 252 234 153 132 215 204 207 204 195 201 198 200 198 201 202
164 167 180 181 173 178 207 201 205 219 249 334 382 351 350 331 324 345 320 317 322 335 352 348 358 361 371 357 360 351 363 349 375 172 212 214 173 201 204 209 202 202 197 195 187 196 198
163 168 173 179 178 176 205 202 133 208 218 354 326 366 340 330 335 343 331 323 295 292 298 307 328 366 404 352 337 332 338 245 224 337 114 135 141 219 174 193 200 200 199 185 190 190 189
187 165 197 172 181 182 184 197 123 203 215 328 329 360 307 274 308 305 290 285 297 282 299 297 297 319 347 342 364 335 311 314 321 262 112 200 167 212 201 212 197 200 192 190 197 196 197
165 173 186 179 167 182 183 199 169 203 205 217 292 309 322 273 310 295 300 296 280 322 293 285 297 283 300 341 284 283 303 307 310 327 350 318 140 143 134 144 197 196 192 209 184 196 194
175 181 186 185 187 180 182 176 199 205 205 211 284 306 304 306 274 269 267 287 263 277 292 278 273 271 277 297 301 295 289 300 251 305 335 250 251 202 163 185 204 207 197 206 189 193 180
155 169 165 171 182 179 179 185 190 194 195 204 225 290 295 285 294 292 280 273 278 276 259 259 270 289 275 266 247 259 266 273 292 299 321 388 262 251 160 140 204 211 215 208 207 210 204
172 170 164 158 164 186 179 182 179 204 190 203 162 220 284 289 162 277 270 262 261 264 278 281 282 282 265 280 286 225 130 177 282 255 315 168 318 302 152 145 172 208 221 208 211 204 199
171 172 165 156 183 179 189 166 179 190 171 195 202 211 220 290 280 285 249 281 281 275 286 274 277 279 289 293 282 117 123 283 320 252 308 367 353 181 192 177 195 214 212 207 207 212 204
175 174 172 161 161 186 172 173 163 181 203 194 199 205 205 224 292 282 280 299 287 282 286 288 309 285 297 291 279 280 293 133 314 313 327 190 148 229 248 172 199 211 222 203 202 203 216
164 144 174 174 180 178 179 183 166 180 174 153 194 192 202 207 219 292 277 277 292 283 292 315 309 333 125 316 305 172 242 128 307 308 182 296 331 336 212 257 236 176 231 229 211 204 206
180 182 185 177 179 154 183 185 182 170 175 174 192 191 198 202 211 225 297 281 277 288 309 309 264 258 317 310 289 241 354 127 232 202 167 166 223 326 327 155 243 239 223 221 178 216 156
177 162 157 180 182 185 168 179 167 176 170 175 179 195 197 179 140 208 225 299 243 257 294 317 287 294 309 287 313 328 309 302 247 296 149 157 203 315 322 320 295 155 141 159 192 219 221
172 171 171 160 184 183 181 168 177 179 156 163 176 171 188 193 196 154 207 226 287 228 247 296 340 303 325 307 307 306 313 324 249 150 169 241 241 157 157 156 146 134 269 212 151 158 212
185 185 171 183 165 179 189 183 187 173 186 162 174 191 175 131 190 192 179 205 209 259 223 221 219 228 229 140 183 221 177 149 143 159 160 224 195 215 144 142 163 170 159 160 142 148 275
161 180 171 172 191 182 177 176 160 161 177 201 169 175 198 168 172 134 177 195 142 205 231 270 214 211 218 215 138 141 213 167 203 140 142 159 156 159 161 157 163 265 226 218 213 201 174
173 156 176 166 158 192 190 187 180 186 182 184 197 163 176 174 168 191 154 190 198 203 201 227 230 257 226 204 205 194 209 209 200 177 173 172 171 176 185 167 173 181 180 186 184 192 184
184 186 158 175 153 165 185 170 152 151 186 180 181 187 165 171 169 154 185 185 156 191 190 198 198 213 226 231 234 249 256 258 214 203 204 209 205 199 187 184 206 220 230 264 289 271 248
164 175 175 174 162 170 164 183 183 160 182 187 175 175 188 186 186 200 184 168 198 183 131 146 188 199 201 203 212 222 220 225 233 232 231 232 231 228 227 237 224 222 222 218 215 216 209
162 156 190 111 186 191 188 182 179 145 179 175 187 174 192 193 177 161 189 202 160 167 208 179 207 136 185 191 184 184 200 196 217 213 211 212 212 214 216 211 202 210 195 200 134 201 139
174 179 163 176 151 173 174 152 145 180 168 178 183 180 166 167 196 183 165 195 175 161 155 166 171 198 191 192 188 191 177 186 189 199 186 179 199 194 189 193 199 192 183 191 191 197 194
188 173 149 167 181 172 174 177 179 179 174 157 165 171 174 180 176 189 182 192 179 194 165 198 174 162 186 194 208 184 206 198 202 182 199 197 172 179 187 184 180 190 177 183 173 179 183
153 173 176 178 175 175 164 149 162 182 173 183 187 168 176 180 179 162 174 172 187 174 163 165 194 203 198 204 176 181 175 171 173 191 184 205 184 203 205 193 186 182 177 198 181 195 215

GFSGBSN_2pvu_pres_135.txt.gz
Presure
167 166 176 192 163 179 183 190 186 224 240 256 378 360 190 358 344 334 331 345 343 360 392 396 387 357 377 140 371 421 244 213 216 210 210 173 224 176 165 214 142 158 151 153 148 163 166
172 164 164 174 172 177 183 191 197 221 237 264 384 263 341 328 339 330 325 331 336 334 381 381 273 362 272 362 145 423 427 238 212 205 209 208 192 220 145 150 150 170 137 155 150 173 175
174 187 172 170 162 187 187 182 211 220 238 389 377 353 337 322 341 329 329 314 327 328 355 363 362 354 157 352 366 405 156 305 244 211 216 206 206 210 215 223 136 212 144 135 182 180 174
184 174 206 170 170 186 193 184 208 216 238 419 386 355 340 332 335 337 341 330 322 320 339 343 316 360 363 333 348 172 417 383 231 217 215 206 206 213 209 174 130 135 211 209 176 187 133
180 155 204 176 171 175 184 189 202 225 237 350 357 374 363 349 339 344 331 327 320 332 325 339 348 343 364 369 292 374 158 233 173 216 173 212 210 209 210 206 217 174 201 202 140 196 142
174 182 170 179 171 183 182 192 206 217 206 361 372 306 366 368 367 325 328 335 332 335 335 339 349 368 360 335 375 307 398 360 219 237 163 180 213 200 206 205 202 216 194 169 195 180 135
162 173 166 182 174 186 180 192 201 208 225 325 313 326 303 292 308 310 306 303 313 324 359 332 343 337 341 372 367 183 378 322 329 237 229 193 203 205 205 202 201 211 211 221 180 139 143
171 177 171 178 187 194 199 193 196 204 217 238 325 299 284 281 277 309 321 307 315 319 332 358 344 344 372 364 380 381 362 365 255 280 142 160 114 199 198 207 203 213 207 211 216 212 164
178 186 184 180 173 187 180 191 186 201 213 221 301 307 265 301 277 315 287 292 295 297 321 331 368 368 391 385 370 374 370 272 151 100 197 228 140 208 164 209 207 211 205 201 209 205 212
204 178 171 178 163 177 202 179 184 203 207 215 300 288 200 282 281 265 270 285 293 283 295 325 350 376 334 343 375 362 360 347 363 381 159 157 228 127 214 215 209 201 197 200 200 200 206
164 204 166 170 162 186 186 181 188 199 180 211 229 290 297 296 282 283 263 258 266 280 288 312 333 322 323 346 326 322 326 350 360 394 121 209 190 131 135 200 205 200 203 203 207 196 194
164 209 167 172 165 161 200 193 176 196 202 210 216 288 276 306 288 286 284 282 274 268 286 294 309 318 305 326 317 313 314 318 300 293 389 182 169 119 180 168 197 197 202 198 201 197 191
174 224 182 171 171 162 177 176 185 184 193 198 213 228 272 277 289 289 285 285 287 279 285 262 287 284 278 278 292 303 309 315 246 321 332 381 245 108 158 164 208 199 189 198 199 208 195
164 178 176 171 185 189 176 188 175 176 189 202 207 216 284 240 273 291 119 285 283 289 293 287 267 270 287 275 297 281 274 267 301 122 310 329 436 139 128 215 214 208 214 209 199 191 187
143 185 175 185 184 180 168 185 193 183 186 195 200 214 227 248 243 282 294 293 294 306 303 295 289 268 270 254 179 133 282 154 317 168 315 350 341 268 156 121 123 142 155 176 190 186 187
196 213 165 146 175 184 170 183 191 175 181 185 156 205 200 246 226 252 296 308 297 334 310 318 295 311 281 276 170 268 145 233 247 301 318 328 342 398 255 192 145 134 212 160 183 193 198
171 191 171 177 153 188 177 173 194 180 182 192 135 200 202 210 267 230 235 308 331 293 318 354 316 310 290 309 297 288 293 188 223 276 305 370 264 358 373 239 193 141 148 199 210 204 202
170 163 163 162 163 169 189 190 182 179 191 181 180 186 163 204 216 249 228 221 232 349 288 161 309 308 323 328 197 311 296 300 309 291 304 334 329 321 341 358 182 146 160 144 202 198 201
173 155 177 175 178 171 167 189 187 188 177 171 202 164 191 178 196 217 238 225 214 219 234 290 168 297 322 333 321 319 127 320 293 321 303 337 261 320 353 348 178 143 175 229 220 228 212
182 161 167 170 173 180 172 182 191 174 163 184 180 193 152 189 205 194 221 250 218 225 220 218 225 227 271 220 305 307 160 221 316 256 124 330 334 128 235 216 337 261 197 223 239 224 187
178 171 180 139 175 185 185 180 187 182 167 202 179 205 196 176 193 206 209 212 249 227 215 224 216 190 215 236 251 312 327 294 336 223 326 206 184 324 183 319 330 281 248 244 150 140 151
182 173 201 189 181 174 170 174 193 192 186 186 192 180 195 171 178 160 198 207 212 229 236 265 207 191 140 197 208 215 183 171 139 166 158 150 313 315 319 170 331 324 264 226 150 236 212
173 176 179 180 153 177 174 169 174 191 153 161 175 187 177 208 205 199 154 190 204 211 211 225 239 275 202 195 151 143 172 186 165 168 240 250 250 176 153 178 151 150 146 152 157 157 168
161 181 183 161 177 173 182 154 173 173 173 155 182 169 179 187 182 168 202 169 133 188 206 207 209 213 232 238 201 242 234 215 216 206 216 184 183 214 213 164 194 178 203 194 183 183 185
163 183 175 182 182 172 181 181 143 171 192 182 179 182 174 187 181 170 165 180 176 169 144 199 204 200 209 208 210 216 235 238 239 242 243 177 171 170 172 183 199 207 243 244 240 245 238
178 148 181 185 173 167 173 170 177 169 170 151 181 182 188 175 183 177 178 152 209 169 215 203 136 170 192 202 200 207 205 204 203 216 221 224 226 223 222 221 222 217 217 214 212 213 217
185 178 173 163 168 182 150 172 172 191 183 133 184 178 178 184 175 188 169 190 201 189 190 159 182 204 189 211 206 193 195 202 198 195 196 198 199 196 196 199 207 199 201 205 195 210 198
183 180 171 180 173 166 180 186 160 166 145 141 163 179 172 167 165 178 182 181 176 179 204 188 151 154 192 193 208 176 192 196 200 210 191 192 191 194 196 196 196 187 187 184 193 206 176
176 184 172 171 181 171 171 182 177 163 157 172 186 188 161 186 177 170 180 179 154 178 179 185 195 207 207 156 192 206 208 198 211 175 179 211 203 219 186 192 191 183 205 185 179 185 211

GFSGBSN_2pvu_pres_138.txt.gz
Presure
174 173 172 175 151 181 181 177 182 189 195 223 250 421 274 225 346 341 339 355 335 341 381 396 370 371 403 363 298 379 420 244 226 214 200 203 197 175 215 161 209 188 188 175 182 183 154
170 154 174 180 187 199 191 184 198 202 207 236 251 299 404 380 358 351 346 347 331 334 375 382 364 380 344 218 124 189 404 455 248 217 211 199 205 202 157 185 140 215 205 173 183 166 156
173 176 179 189 182 180 180 194 194 199 211 236 253 348 361 361 377 371 340 342 336 328 359 366 346 351 344 336 133 353 166 426 316 241 227 210 200 204 204 158 212 204 216 196 188 151 173
194 178 166 195 189 180 187 193 194 189 221 233 142 344 339 314 325 336 342 351 339 331 327 343 343 335 326 340 345 327 346 178 388 226 228 215 215 211 210 206 207 219 134 160 186 134 170
182 185 184 166 188 180 175 184 196 189 219 227 257 324 300 310 300 297 304 327 351 334 342 347 341 329 348 338 191 304 368 362 208 367 228 224 220 219 208 209 208 207 191 205 182 136 179
189 182 186 179 175 182 179 183 192 189 215 226 262 324 315 286 282 286 298 302 318 351 337 351 374 349 341 329 348 353 366 399 402 328 292 223 211 215 216 211 202 200 150 201 199 205 186
177 166 178 192 170 169 168 185 191 185 207 224 248 276 305 293 282 283 281 290 308 326 360 340 341 354 367 353 346 345 148 381 350 154 299 258 219 200 217 209 201 204 206 215 205 197 187
185 197 183 163 173 174 164 175 195 184 206 220 240 243 305 298 291 283 277 285 290 321 347 346 327 353 360 352 372 357 349 214 342 339 312 136 221 215 209 210 203 202 205 210 213 158 147
189 188 177 171 175 179 173 176 190 184 203 216 234 237 293 294 297 295 282 286 282 305 363 368 356 369 369 373 354 386 358 372 335 301 337 245 198 213 205 210 207 203 197 198 205 204 218
170 182 192 171 189 176 171 186 192 201 197 213 229 232 282 293 295 293 293 287 283 297 350 358 374 383 369 381 381 378 380 360 335 335 191 154 238 211 208 206 207 199 195 200 201 198 209
137 183 187 174 186 179 175 192 192 202 194 209 226 233 242 312 292 298 292 288 285 285 310 329 326 325 335 338 378 331 330 342 356 258 321 291 260 126 218 121 207 201 197 200 203 199 200
190 191 163 173 179 178 187 189 186 194 185 197 219 248 233 249 303 288 301 299 290 278 290 324 312 310 306 313 326 347 334 333 329 349 181 194 145 150 186 209 203 197 204 194 198 201 199
201 172 173 174 184 181 186 178 181 182 187 186 147 227 226 230 296 303 291 338 299 279 286 289 291 307 298 296 289 308 346 352 372 337 348 146 274 230 126 125 163 204 198 201 203 206 201
200 166 219 181 173 163 185 191 186 178 196 183 192 220 223 226 233 309 310 307 330 294 273 281 285 274 291 302 292 297 310 327 344 369 386 307 148 128 167 218 143 126 204 204 204 199 194
238 166 194 198 171 155 164 186 192 187 202 173 194 215 211 223 228 233 316 307 333 314 288 281 282 277 282 281 288 277 306 283 320 318 330 330 279 158 242 227 175 137 117 164 211 202 202
146 170 140 199 177 176 163 175 192 188 172 191 203 196 223 227 218 222 239 283 298 371 316 291 289 293 288 285 279 292 197 256 303 128 324 353 330 273 244 166 213 216 177 205 185 198 200
212 195 120 194 174 166 174 171 188 197 179 189 167 204 202 197 210 219 228 229 254 300 331 316 317 284 288 288 283 126 192 280 136 217 320 330 347 284 270 232 165 147 209 186 218 210 202
140 202 143 161 172 181 177 181 180 182 168 173 210 209 194 221 228 236 221 211 238 246 279 300 321 320 328 314 302 146 136 298 303 305 314 320 339 412 272 249 243 219 134 111 222 211 141
170 191 191 170 162 171 166 186 184 181 181 194 194 186 180 189 217 229 246 218 215 224 238 307 314 303 322 309 313 123 310 324 186 266 319 184 340 383 385 263 244 217 142 161 178 221 195
158 187 171 181 187 159 172 196 182 191 184 193 195 186 172 214 181 218 226 250 214 218 224 245 245 212 328 317 312 219 144 140 308 311 329 337 333 366 357 366 210 243 145 144 159 194 147
170 141 188 164 165 189 153 167 183 185 182 188 182 180 188 200 195 176 216 219 239 255 217 205 229 250 250 266 329 329 329 287 336 197 280 346 332 316 357 363 340 217 154 153 169 143 210
171 180 166 144 182 176 192 175 184 175 181 189 169 180 180 201 198 209 190 207 216 227 192 193 207 220 233 236 259 250 329 332 328 136 339 341 218 360 353 351 337 181 277 155 233 226 222
166 147 164 171 180 151 187 171 177 183 184 179 171 181 197 194 185 184 200 197 209 211 218 227 240 238 185 214 194 178 154 231 264 308 321 316 316 322 334 204 198 332 225 284 197 224 183
168 169 178 171 145 177 178 188 168 173 181 174 178 191 190 180 197 163 204 216 198 189 205 211 216 226 242 160 145 188 219 198 202 152 159 148 231 308 313 225 319 294 226 236 245 232 241
175 163 165 167 195 169 178 172 181 173 183 180 175 189 178 187 188 191 166 217 177 202 202 198 205 212 221 219 230 240 179 215 213 219 226 231 188 145 148 250 245 224 175 253 250 243 238
211 173 172 175 170 178 161 172 155 188 175 183 176 180 179 191 181 194 172 163 203 190 178 183 198 203 210 211 215 215 219 226 235 234 239 211 215 214 214 213 213 163 160 205 161 172 196
215 174 171 168 172 179 176 162 161 177 184 159 184 189 177 189 169 187 179 201 183 199 203 190 179 196 206 192 204 204 205 208 211 214 212 215 216 222 227 231 231 227 222 219 214 211 211
191 207 175 189 169 176 165 166 167 173 181 190 171 155 167 172 182 174 170 176 185 176 185 195 186 200 199 196 204 205 209 202 213 206 198 205 208 215 206 203 200 210 209 206 199 204 192
179 213 194 176 181 176 178 185 151 176 179 174 185 180 168 173 187 155 189 180 186 177 177 172 187 214 211 199 217 191 179 190 206 197 207 206 196 199 211 199 186 191 214 185 187 183 183

GFSGBSN_2pvu_pres_141.txt.gz
Presure
201 171 176 152 170 183 177 197 185 183 190 198 195 191 264 283 293 322 321 337 362 347 349 359 383 363 378 364 153 410 409 387 388 256 230 212 217 136 215 223 194 229 217 170 178 177 88
152 176 177 173 178 147 188 197 207 188 200 205 192 207 260 215 187 310 304 312 330 356 341 374 355 370 377 393 255 263 354 378 398 296 232 225 216 204 178 215 210 213 216 174 182 155 146
184 157 158 152 183 185 187 179 168 180 172 195 187 227 136 171 315 311 298 297 320 360 347 358 362 344 331 321 159 347 195 385 432 353 299 231 215 211 202 213 133 215 213 211 174 187 177
186 181 185 181 191 182 191 197 185 182 182 199 192 239 156 310 319 308 301 295 310 213 288 355 359 324 319 321 331 332 342 380 374 330 314 259 220 222 212 210 215 128 217 209 200 141 184
175 158 188 185 173 189 180 174 185 180 193 202 197 144 245 314 306 309 299 298 305 339 346 344 358 327 317 324 329 328 344 339 183 225 311 338 233 223 205 207 211 213 209 191 206 165 191
196 194 176 202 163 159 180 192 183 181 200 196 199 247 243 321 299 303 297 299 306 330 347 354 343 329 333 313 338 312 329 353 250 139 328 327 240 213 203 188 204 203 205 207 212 209 136
214 167 195 210 188 201 169 195 182 182 196 184 199 252 241 315 301 306 297 296 299 338 358 330 381 347 329 319 335 256 325 399 343 312 315 320 271 219 199 202 189 196 192 202 204 209 210
198 219 220 200 184 177 181 194 185 183 196 190 194 222 236 244 311 297 310 295 294 341 359 348 343 344 344 337 325 340 334 366 341 322 313 138 271 235 208 203 197 181 195 189 192 189 199
127 196 209 193 203 178 177 195 188 192 194 185 196 246 224 236 307 315 307 293 289 321 361 362 360 375 352 367 357 342 345 268 337 339 333 350 199 237 214 205 198 202 191 192 190 192 190
212 126 145 134 203 169 183 194 188 191 183 191 194 204 215 239 267 302 328 307 284 311 326 328 363 361 373 368 363 352 348 337 241 352 365 144 322 237 224 206 194 200 204 198 190 196 199
243 209 140 202 174 176 184 180 185 183 199 193 202 232 189 226 243 297 320 313 291 293 306 317 316 340 379 372 353 358 325 319 322 150 333 377 340 139 236 213 206 218 201 203 199 199 196
209 187 145 229 183 191 183 176 185 186 194 190 200 207 205 218 235 270 304 324 299 288 289 292 299 311 329 357 382 377 315 318 321 165 336 348 358 125 244 220 209 212 208 210 213 198 199
197 209 206 211 169 189 204 180 179 182 197 188 200 225 238 214 227 241 301 352 299 285 266 287 293 293 304 320 342 375 332 320 311 319 345 331 165 241 114 127 214 213 191 210 222 205 197
181 179 180 164 230 175 208 164 175 182 190 181 193 197 228 215 216 229 265 314 324 293 277 287 290 282 283 303 320 320 366 315 311 322 329 333 272 296 157 143 219 203 208 193 211 205 192
183 171 186 118 166 174 187 175 181 182 178 195 199 186 225 244 214 221 233 320 337 301 287 281 291 294 284 289 292 313 342 320 349 321 323 344 323 165 274 266 134 204 129 198 191 193 195
167 180 157 156 182 198 177 169 181 186 185 195 201 175 205 230 206 213 235 247 309 317 306 293 283 274 284 291 291 290 300 317 341 333 245 144 321 319 186 121 152 175 119 185 172 193 199
165 172 132 210 185 169 163 174 180 193 187 182 195 174 198 225 240 205 218 243 262 313 318 322 293 285 285 279 289 289 292 254 132 324 344 345 287 282 182 180 165 191 210 190 202 136 163
197 180 176 177 266 185 184 177 168 210 189 184 195 189 202 146 223 242 214 215 245 193 325 314 335 323 297 293 281 298 300 314 305 260 325 372 159 311 277 173 260 144 225 186 212 200 124
166 188 154 146 161 181 184 166 172 178 187 181 180 189 208 197 188 227 243 176 205 252 245 334 324 322 321 315 145 129 289 306 302 313 318 117 390 354 251 167 261 175 226 224 219 200 195
183 159 167 152 190 177 175 183 188 169 186 183 174 179 192 190 165 197 228 239 173 214 228 245 295 335 330 323 178 227 122 339 305 313 328 335 294 307 298 272 265 251 150 229 225 210 205
182 177 147 189 172 178 174 182 180 192 182 186 182 197 193 202 177 200 203 222 231 241 156 220 251 277 339 334 335 314 311 132 204 311 341 356 348 395 366 285 195 262 252 241 184 145 222
198 161 162 166 152 164 155 154 178 178 182 191 192 178 199 194 201 183 196 213 219 229 238 207 199 231 257 333 332 324 327 324 338 354 330 343 341 375 406 342 278 267 255 138 131 229 231
200 177 162 157 163 185 151 159 164 172 189 174 190 177 182 180 176 207 183 212 193 217 220 229 150 175 184 223 260 301 317 140 310 326 323 330 343 369 378 376 337 273 260 244 175 233 222
141 189 202 173 181 163 166 172 178 166 172 191 168 190 182 187 193 184 206 181 208 203 215 223 223 191 157 156 196 161 158 226 304 240 322 332 335 251 361 358 356 283 275 238 214 165 166
174 189 180 177 155 188 180 149 170 161 171 183 186 178 186 182 195 191 199 206 195 182 176 203 212 217 225 216 217 198 223 176 151 176 182 294 306 314 326 342 346 349 347 340 285 256 170
190 171 186 158 179 147 134 162 170 177 170 162 180 192 174 184 195 173 188 189 201 197 188 203 186 209 215 215 225 224 206 191 228 233 242 250 254 249 270 284 298 325 321 253 249 158 240
181 194 175 199 178 188 163 174 171 173 160 186 169 183 184 179 190 189 176 172 181 187 190 194 194 211 215 205 223 213 220 224 222 228 221 235 240 230 236 218 239 238 241 234 233 238 232
204 192 179 190 187 171 173 180 180 173 173 168 172 173 147 169 194 178 180 180 183 190 185 180 169 202 189 199 212 199 210 207 205 212 221 225 218 213 183 219 226 224 214 213 221 221 191
212 202 202 175 196 198 176 162 174 175 163 169 163 168 167 181 194 187 174 161 175 188 177 193 173 184 180 176 153 208 197 206 226 200 208 202 209 210 206 206 217 202 210 213 220 210 208

GFSGBSN_2pvu_pres_147.txt.gz
Presure
170 221 214 215 210 198 220 204 184 179 192 167 197 166 196 207 201 205 191 219 279 246 365 340 357 397 394 377 377 282 379 417 429 437 402 287 232 210 198 212 213 210 211 197 210 190 83
170 133 177 148 217 216 213 185 174 171 200 204 194 192 198 203 201 185 210 232 257 302 340 396 389 372 341 344 359 384 386 389 409 410 374 396 264 222 210 195 210 212 210 211 215 193 153
192 212 231 220 220 194 210 199 203 193 211 178 210 192 192 201 207 195 217 142 241 342 332 396 393 349 347 337 338 327 346 385 403 373 419 362 344 268 220 207 194 203 207 207 212 221 188
174 187 231 237 223 215 183 213 213 216 190 223 222 195 198 191 208 207 240 242 308 332 320 352 385 342 337 327 313 316 334 351 414 361 384 336 323 349 257 215 208 196 196 203 208 209 213
184 197 187 195 205 240 203 227 203 227 235 182 186 187 199 208 197 161 263 236 339 319 308 340 382 350 333 331 319 318 316 348 425 391 254 329 328 327 262 229 216 209 197 186 196 206 205
179 169 130 182 126 227 199 185 233 188 227 235 177 189 201 204 196 225 240 242 333 315 279 312 352 386 336 322 317 216 307 342 357 382 326 309 316 329 344 256 227 213 203 198 186 198 206
160 186 160 200 192 143 261 248 233 238 227 193 211 183 204 195 207 248 231 245 325 307 311 315 324 370 339 318 320 316 308 324 338 356 321 300 298 299 320 336 242 210 206 200 192 190 202
199 169 173 194 172 182 198 250 132 189 196 183 177 189 202 184 212 266 196 264 324 303 316 309 314 365 351 325 318 326 306 330 325 323 314 269 150 287 348 340 262 221 213 208 197 194 200
181 192 192 161 160 179 160 193 191 245 185 159 189 191 203 183 184 267 215 268 331 306 298 307 310 369 387 334 311 322 311 311 316 314 299 148 192 181 318 454 330 229 217 213 204 190 198
212 199 186 176 168 190 194 205 245 188 217 189 192 198 197 219 212 257 221 248 326 319 294 307 306 329 416 346 323 328 316 302 295 304 293 283 160 305 315 344 394 260 224 214 203 192 200
164 210 215 190 157 161 161 159 189 189 215 183 193 200 193 210 214 236 225 242 329 325 298 295 310 318 396 355 337 292 313 300 286 286 298 304 303 291 326 310 387 270 231 209 203 197 197
183 185 199 195 173 162 165 201 256 215 185 182 196 192 191 192 214 223 258 234 335 324 309 286 305 317 399 400 335 292 304 301 305 283 288 292 307 179 311 317 377 285 231 219 222 202 202
174 155 206 183 187 176 189 187 196 213 150 175 191 180 189 185 201 218 269 207 271 329 326 293 298 309 387 380 381 307 294 298 293 285 301 308 301 312 159 319 223 277 238 227 227 203 196
157 191 195 221 192 191 171 177 166 197 182 182 184 182 193 213 194 214 251 238 237 336 320 309 286 301 308 376 374 320 298 282 296 176 283 295 308 142 153 219 352 275 244 230 228 218 206
180 150 178 209 196 187 174 183 149 194 202 172 184 192 177 215 192 215 220 273 219 339 327 323 291 286 301 317 351 375 308 295 294 295 290 297 297 158 322 135 244 271 242 233 223 204 189
200 152 207 172 204 166 173 172 156 184 204 185 195 195 188 196 205 215 215 244 214 297 332 322 313 277 290 300 301 315 304 341 297 303 314 309 297 247 154 96 177 208 245 230 223 205 202
171 166 201 182 144 195 157 164 123 208 185 184 191 198 192 188 202 217 211 232 251 225 342 328 316 308 287 284 292 292 307 312 347 344 294 298 307 310 154 178 331 137 147 180 221 207 202
204 182 204 205 137 216 172 179 187 185 183 201 189 195 181 186 192 211 213 218 234 247 241 340 328 317 308 292 280 291 288 296 314 311 309 326 154 337 304 268 182 272 258 183 214 203 204
165 178 160 190 205 203 196 168 175 149 200 188 177 180 186 187 195 208 200 207 214 190 226 277 341 333 318 310 306 298 298 291 294 303 325 326 316 316 398 315 139 270 258 208 220 217 190
154 191 180 151 205 204 150 182 185 159 173 182 175 188 186 196 190 191 205 188 205 217 210 198 275 336 328 325 325 326 305 295 298 303 315 335 102 303 251 217 346 304 267 249 214 217 207
125 174 182 194 180 202 192 194 189 193 180 189 180 174 173 185 185 196 209 196 213 228 219 220 224 269 159 139 333 330 301 301 303 307 313 278 350 329 286 321 333 285 282 267 144 189 205
203 129 153 188 196 201 197 186 178 173 168 172 175 179 187 185 194 192 189 207 213 213 227 169 174 173 259 306 225 320 323 324 338 344 320 324 344 350 334 374 261 344 295 274 216 220 221
196 196 189 204 188 162 198 218 185 166 191 181 182 173 183 185 182 193 192 192 200 207 218 213 209 193 168 231 286 312 323 180 134 312 126 340 348 368 361 331 138 351 297 253 262 238 156
224 166 174 194 204 195 196 187 217 183 183 181 171 175 180 178 188 192 191 185 197 195 201 217 201 198 221 222 179 266 302 314 331 345 375 356 403 366 354 332 360 369 329 277 221 189 226
186 206 190 166 167 201 198 193 188 190 146 156 154 180 169 178 185 188 187 169 186 197 197 199 208 214 204 213 228 166 247 281 309 321 340 367 389 368 347 349 327 367 339 288 270 264 250
183 151 183 196 160 202 199 194 182 160 190 167 166 172 192 177 175 179 186 181 176 185 196 195 140 211 204 221 213 224 169 246 259 288 313 334 360 364 356 345 345 332 346 311 283 269 260
215 184 164 196 192 199 207 192 186 184 187 178 176 190 184 186 180 180 176 180 184 186 185 199 183 191 181 205 204 214 211 226 177 248 262 286 315 331 385 350 337 331 328 341 288 271 262
197 184 191 209 186 134 173 205 148 194 184 200 181 189 178 166 171 172 172 172 185 187 187 185 191 192 196 195 186 202 207 208 207 222 159 240 255 276 302 326 337 335 311 308 304 269 265
212 185 163 204 140 221 209 164 202 175 181 152 202 182 166 181 172 175 170 183 182 175 172 189 187 195 195 184 178 186 194 198 201 203 210 207 223 227 237 247 252 270 321 330 340 306 282